Starlink 32803

operational
NORAD ID: 63024 Int'l Des: 2025-032 Owner: SPXS Country: US Constellation: starlink
LEOCIRCULAR

Starlink 32803について

説明を読み込み中...

リアルタイム位置

3D地球を読み込み中...

次回通過

高度履歴

Altitude vs Time

uPlot chart will show altitude changes over time

軌道要素

1 63024U 25032V 25259.63841344 .00020410 00000-0 74930-3 0 9996
2 63024 42.9964 238.7734 0000964 304.7500 55.3261 15.27573458 33840
Epoch: Sep 16, 2025 • Age: 24 hours

現在のステータス

高度 482.4 km
速度 7.63 km/s
衛星直下点 -0.76°S, 12.79°E
打ち上げ日 Feb 15, 2025
運用期間 0.5 years
タイプ internet

技術仕様

分類 Payload
質量 730.00 kg
乾燥質量 700.00 kg
総質量 730.00 kg
長さ 0.30 m
直径 4.10 m
スパン 29.00 m
形状 Box + pan
製造者 SPXS
バスタイプ Starlink V2M
フェーズステータス In Orbit
所有者/国 SPXS/US

大規模コンステレーション

Loading constellations...